DC7DOC Weather Reports


time (UTC)temp
C
wind
direction
speed
KPH
gust
KPH
rain 1hr
cm
rain 24hr
cm
rain mn
cm
humidity
%
barometer
mb
20260507153203 10 112 4.8 6.4 0.00 0.00 0.00 75 1020.9
20260507153016 10 112 4.8 6.4 0.00 0.00 0.00 75 1020.9
20260507152617 10 115 4.8 8.0 0.00 0.00 0.00 75 1020.9
20260507152603 10 114 4.8 8.0 0.00 0.00 0.00 75 1020.9
20260507152203 10 107 4.8 6.4 0.00 0.00 0.00 75 1020.6
20260507152003 10 109 4.8 8.0 0.00 0.00 0.00 75 1020.8
20260507151817 10 109 4.8 8.0 0.00 0.00 0.00 74 1020.7
20260507151803 10 108 4.8 8.0 0.00 0.00 0.00 74 1020.7
20260507151403 10 111 4.8 4.8 0.00 0.00 0.00 75 1020.7
20260507151203 10 112 4.8 6.4 0.00 0.00 0.00 74 1020.7
20260507151003 10 104 4.8 8.0 0.00 0.00 0.00 74 1020.9
20260507150803 10 96 4.8 8.0 0.00 0.00 0.00 74 1020.7
20260507150603 10 85 4.8 6.4 0.00 0.00 0.00 74 1020.7
20260507150403 10 81 4.8 4.8 0.00 0.00 0.00 74 1020.7
20260507150203 10 82 4.8 6.4 0.00 0.00 0.00 77 1020.8
20260507150003 10 85 4.8 6.4 0.00 0.00 0.00 76 1020.7
20260507145803 10 88 4.8 6.4 0.00 0.00 0.00 73 1020.6
20260507145403 10 83 4.8 6.4 0.00 0.00 0.00 73 1020.4
20260507145203 10 80 4.8 4.8 0.00 0.00 0.00 74 1020.3
20260507145018 10 80 4.8 6.4 0.00 0.00 0.00 75 1020.5
20260507145003 10 79 4.8 6.4 0.00 0.00 0.00 75 1020.5
20260507144603 10 90 4.8 6.4 0.00 0.00 0.00 77 1020.5
20260507144403 10 97 4.8 6.4 0.00 0.00 0.00 75 1020.5
20260507144203 10 101 4.8 6.4 0.00 0.00 0.00 73 1020.4
20260507144003 10 103 4.8 8.0 0.00 0.00 0.00 72 1020.6
20260507143803 10 100 4.8 6.4 0.00 0.00 0.00 73 1020.5
20260507143603 10 99 4.8 6.4 0.00 0.00 0.00 73 1020.6
20260507143403 10 97 4.8 8.0 0.00 0.00 0.00 72 1020.4
20260507143203 10 95 4.8 6.4 0.00 0.00 0.00 72 1020.5
20260507143003 10 95 4.8 6.4 0.00 0.00 0.00 73 1020.7
20260507142803 11 93 4.8 6.4 0.00 0.00 0.00 73 1020.6
20260507142603 11 90 4.8 6.4 0.00 0.00 0.00 72 1020.6
20260507142403 10 85 4.8 6.4 0.00 0.00 0.00 72 1020.5
20260507142203 11 82 4.8 6.4 0.00 0.00 0.00 72 1020.3
20260507142003 11 84 4.8 6.4 0.00 0.00 0.00 73 1020.3
20260507141803 11 86 4.8 6.4 0.00 0.00 0.00 74 1020.6
20260507141603 11 90 4.8 6.4 0.00 0.00 0.00 73 1020.4
20260507141403 10 94 4.8 6.4 0.00 0.00 0.00 73 1020.5
20260507141203 10 96 4.8 8.0 0.00 0.00 0.00 72 1020.5
20260507141003 10 94 4.8 6.4 0.00 0.00 0.00 72 1020.3
20260507140803 10 93 4.8 6.4 0.00 0.00 0.00 73 1020.4
20260507140603 10 90 4.8 6.4 0.00 0.00 0.00 72 1020.5
20260507140403 10 90 4.8 6.4 0.00 0.00 0.00 72 1020.5
20260507140203 10 89 4.8 8.0 0.00 0.00 0.00 73 1020.2
20260507135803 10 86 4.8 4.8 0.00 0.00 0.00 74 1020.3
20260507135603 10 89 4.8 8.0 0.00 0.00 0.00 73 1020.2
20260507135403 10 88 4.8 6.4 0.00 0.00 0.00 74 1020.3
20260507135203 10 93 4.8 4.8 0.00 0.00 0.00 73 1020.4
20260507135003 10 90 4.8 4.8 0.00 0.00 0.00 74 1020.4
20260507134803 10 91 4.8 6.4 0.00 0.00 0.00 73 1020.3
20260507134603 10 89 4.8 4.8 0.00 0.00 0.00 74 1020.1
20260507134403 10 87 4.8 8.0 0.00 0.00 0.00 72 1020.3
20260507134203 10 85 4.8 4.8 0.00 0.00 0.00 75 1020.1
20260507134003 10 90 4.8 4.8 0.00 0.00 0.00 73 1020.4
20260507133803 10 90 4.8 6.4 0.00 0.00 0.00 73 1020.4
20260507133618 10 92 4.8 8.0 0.00 0.00 0.00 73 1020.4
20260507133603 10 93 4.8 8.0 0.00 0.00 0.00 73 1020.4
20260507133203 10 95 4.8 6.4 0.00 0.00 0.00 73 1020.3
20260507133003 10 91 4.8 9.7 0.00 0.00 0.00 72 1020.2
20260507132803 10 89 4.8 6.4 0.00 0.00 0.00 73 1020.3
20260507132604 10 87 4.8 9.7 0.00 0.00 0.00 74 1020.3
20260507132403 10 79 4.8 6.4 0.00 0.00 0.00 75 1020.0
20260507132203 10 81 4.8 6.4 0.00 0.00 0.00 76 1020.2
20260507132003 10 82 4.8 6.4 0.00 0.00 0.00 75 1020.1
20260507131803 10 85 4.8 6.4 0.00 0.00 0.00 73 1020.2
20260507131603 10 89 4.8 11.3 0.00 0.00 0.00 75 1020.2
20260507131403 10 96 4.8 8.0 0.00 0.00 0.00 75 1020.0
20260507131203 10 99 4.8 6.4 0.00 0.00 0.00 74 1020.2
20260507131003 10 101 4.8 8.0 0.00 0.00 0.00 74 1020.1
20260507130803 10 97 4.8 9.7 0.00 0.00 0.00 73 1020.2
20260507130603 10 92 4.8 4.8 0.00 0.00 0.00 74 1020.3
20260507130403 10 90 4.8 9.7 0.00 0.00 0.00 74 1020.0
20260507130203 10 90 4.8 6.4 0.00 0.00 0.00 75 1020.0
20260507130003 10 87 4.8 6.4 0.00 0.00 0.00 75 1020.1
20260507125803 10 88 4.8 9.7 0.00 0.00 0.00 74 1020.1
20260507125618 10 91 4.8 8.0 0.00 0.00 0.00 75 1020.1
20260507125603 10 92 4.8 8.0 0.00 0.00 0.00 75 1020.1
20260507125218 10 93 4.8 6.4 0.00 0.00 0.00 76 1020.0
20260507125203 10 94 4.8 6.4 0.00 0.00 0.00 76 1020.0
20260507124803 10 93 6.4 9.7 0.00 0.00 0.00 74 1020.1
20260507124603 10 88 6.4 8.0 0.00 0.00 0.00 75 1020.2
20260507124403 10 90 6.4 9.7 0.00 0.00 0.00 74 1020.2
20260507124203 10 85 4.8 6.4 0.00 0.00 0.00 75 1020.0
20260507124003 10 84 4.8 6.4 0.00 0.00 0.00 75 1020.1
20260507123803 10 86 4.8 9.7 0.00 0.00 0.00 76 1019.9
20260507123603 10 84 4.8 8.0 0.00 0.00 0.00 74 1020.0
20260507123403 10 78 4.8 6.4 0.00 0.00 0.00 76 1020.0
20260507123203 10 82 4.8 8.0 0.00 0.00 0.00 76 1020.0
20260507123003 10 77 4.8 8.0 0.00 0.00 0.00 75 1020.0
20260507122803 9 77 4.8 6.4 0.00 0.00 0.00 76 1019.8
20260507122603 9 80 4.8 4.8 0.00 0.00 0.00 76 1020.0
20260507122403 9 81 4.8 8.0 0.00 0.00 0.00 76 1019.9
20260507122203 9 80 4.8 12.9 0.00 0.00 0.00 76 1020.0
20260507122003 9 86 4.8 9.7 0.00 0.00 0.00 76 1020.0
20260507121803 9 85 4.8 6.4 0.00 0.00 0.00 77 1019.8
20260507121603 9 84 4.8 8.0 0.00 0.00 0.00 77 1019.9
20260507121403 9 86 4.8 8.0 0.00 0.00 0.00 78 1020.0
20260507121203 9 83 4.8 6.4 0.00 0.00 0.00 79 1019.9
20260507121003 8 83 4.8 6.4 0.00 0.00 0.00 79 1020.0
20260507120803 8 82 4.8 6.4 0.00 0.00 0.00 79 1019.9
20260507120603 8 83 4.8 6.4 0.00 0.00 0.00 79 1019.9
20260507120417 8 80 4.8 6.4 0.00 0.00 0.00 79 1020.0
20260507120403 8 79 4.8 6.4 0.00 0.00 0.00 79 1020.0
20260507120003 8 84 4.8 6.4 0.00 0.00 0.00 79 1019.9
20260507115803 8 83 4.8 6.4 0.00 0.00 0.00 79 1019.7
20260507115603 8 82 4.8 6.4 0.00 0.00 0.00 80 1019.7
20260507115403 8 81 4.8 6.4 0.00 0.00 0.00 79 1019.9
20260507115203 8 80 4.8 6.4 0.00 0.00 0.00 80 1019.8
20260507115003 8 76 4.8 8.0 0.00 0.00 0.00 80 1019.9
20260507114803 8 75 4.8 8.0 0.00 0.00 0.00 80 1019.9
20260507114603 8 76 4.8 6.4 0.00 0.00 0.00 80 1019.8
20260507114403 8 79 4.8 8.0 0.00 0.00 0.00 80 1019.9
20260507114218 8 79 4.8 6.4 0.00 0.00 0.00 80 1019.7
20260507114203 8 81 4.8 6.4 0.00 0.00 0.00 80 1019.7
20260507114017 8 88 4.8 6.4 0.00 0.00 0.00 80 1019.8
20260507113603 8 97 6.4 6.4 0.00 0.00 0.00 80 1019.8
20260507113403 8 99 6.4 8.0 0.00 0.00 0.00 80 1019.7
20260507113203 8 96 6.4 9.7 0.00 0.00 0.00 80 1019.8
20260507113003 8 94 4.8 6.4 0.00 0.00 0.00 81 1019.9
20260507112803 8 89 4.8 9.7 0.00 0.00 0.00 80 1019.7
20260507112603 8 88 4.8 9.7 0.00 0.00 0.00 81 1019.6
20260507112403 8 80 4.8 6.4 0.00 0.00 0.00 82 1019.8
20260507112203 8 76 4.8 9.7 0.00 0.00 0.00 81 1019.6
20260507112017 8 80 6.4 4.8 0.00 0.00 0.00 81 1019.5
20260507112003 8 81 6.4 4.8 0.00 0.00 0.00 81 1019.5
20260507111603 8 83 4.8 6.4 0.00 0.00 0.00 81 1019.4
20260507111403 8 89 4.8 12.9 0.00 0.00 0.00 81 1019.5
20260507111203 8 93 4.8 8.0 0.00 0.00 0.00 81 1019.5
20260507111017 8 87 4.8 8.0 0.00 0.00 0.00 81 1019.6
20260507111003 8 86 4.8 8.0 0.00 0.00 0.00 81 1019.6
20260507110818 8 87 4.8 6.4 0.00 0.00 0.00 82 1019.7
20260507110403 8 85 4.8 8.0 0.00 0.00 0.00 82 1019.6
20260507110203 8 88 4.8 9.7 0.00 0.00 0.00 82 1019.4
20260507110003 8 89 4.8 6.4 0.00 0.00 0.00 82 1019.6
20260507105803 8 90 4.8 6.4 0.00 0.00 0.00 83 1019.5
20260507105603 8 92 4.8 6.4 0.00 0.00 0.00 83 1019.6
20260507105403 8 93 4.8 6.4 0.00 0.00 0.00 83 1019.7
20260507105203 8 92 4.8 11.3 0.00 0.00 0.00 83 1019.6
20260507105003 8 94 4.8 6.4 0.00 0.00 0.00 83 1019.6
20260507104803 8 93 4.8 8.0 0.00 0.00 0.00 82 1019.7
20260507104617 8 91 4.8 8.0 0.00 0.00 0.00 83 1019.5
20260507104603 8 92 4.8 8.0 0.00 0.00 0.00 83 1019.5
20260507104203 8 87 4.8 6.4 0.00 0.00 0.00 83 1019.5
20260507104019 8 87 4.8 8.0 0.00 0.00 0.00 83 1019.4
20260507104003 8 86 4.8 8.0 0.00 0.00 0.00 83 1019.4
20260507103818 8 84 6.4 9.7 0.00 0.00 0.00 83 1019.5
20260507103403 8 97 4.8 6.4 0.00 0.00 0.00 83 1019.5
20260507103203 8 101 4.8 11.3 0.00 0.00 0.00 82 1019.5
20260507103016 8 105 4.8 6.4 0.00 0.00 0.00 83 1019.4
20260507103003 8 105 4.8 6.4 0.00 0.00 0.00 83 1019.4
20260507102603 8 106 4.8 9.7 0.00 0.00 0.00 82 1019.2
20260507102403 8 102 4.8 6.4 0.00 0.00 0.00 81 1019.4
20260507102203 8 99 4.8 9.7 0.00 0.00 0.00 81 1019.5
20260507102003 8 96 4.8 6.4 0.00 0.00 0.00 80 1019.4
20260507101803 8 92 4.8 6.4 0.00 0.00 0.00 79 1019.3
20260507101603 8 92 4.8 6.4 0.00 0.00 0.00 79 1019.4
20260507101403 8 91 4.8 8.0 0.00 0.00 0.00 79 1019.4
20260507101003 8 85 4.8 4.8 0.00 0.00 0.00 78 1019.4
20260507100803 8 84 4.8 6.4 0.00 0.00 0.00 78 1019.3
20260507100603 9 80 4.8 6.4 0.00 0.00 0.00 77 1019.1
20260507100418 9 78 4.8 8.0 0.00 0.00 0.00 78 1019.3
20260507100403 9 80 4.8 8.0 0.00 0.00 0.00 78 1019.3
20260507100003 9 80 4.8 6.4 0.00 0.00 0.00 79 1019.1
20260507095803 9 83 4.8 6.4 0.00 0.00 0.00 79 1019.0
20260507095603 9 84 4.8 8.0 0.00 0.00 0.00 78 1019.0
20260507095403 9 83 4.8 8.0 0.00 0.00 0.00 80 1019.0
20260507095203 8 85 4.8 4.8 0.00 0.00 0.00 78 1019.0
20260507095003 8 81 4.8 9.7 0.00 0.00 0.00 78 1019.1
20260507094803 8 83 4.8 6.4 0.00 0.00 0.00 79 1019.0
20260507094603 8 83 4.8 8.0 0.00 0.00 0.00 79 1018.9
20260507094418 8 83 4.8 6.4 0.00 0.00 0.00 78 1019.0
20260507094403 8 81 4.8 6.4 0.00 0.00 0.00 79 1019.0
20260507094003 8 84 4.8 6.4 0.00 0.00 0.00 78 1018.8
20260507093803 8 79 4.8 8.0 0.00 0.00 0.00 79 1018.8
20260507093603 8 78 4.8 4.8 0.00 0.00 0.00 80 1018.7
20260507093403 8 80 4.8 6.4 0.00 0.00 0.00 80 1018.7
20260507093217 8 82 4.8 6.4 0.00 0.00 0.00 80 1019.0
20260507093203 8 82 4.8 6.4 0.00 0.00 0.00 80 1019.0
20260507092803 8 86 4.8 4.8 0.00 0.00 0.00 81 1018.6
20260507092603 8 90 6.4 8.0 0.00 0.00 0.00 80 1018.4
20260507092403 8 94 4.8 11.3 0.00 0.00 0.00 79 1018.7
20260507092203 8 91 4.8 9.7 0.00 0.00 0.00 80 1018.5
20260507092003 8 91 4.8 6.4 0.00 0.00 0.00 80 1018.7
20260507091803 8 91 4.8 14.5 0.00 0.00 0.00 80 1018.7
20260507091616 8 87 4.8 6.4 0.00 0.00 0.00 80 1018.7
20260507091603 8 88 4.8 6.4 0.00 0.00 0.00 79 1018.7
20260507091203 8 87 4.8 6.4 0.00 0.00 0.00 81 1018.4
20260507091003 8 87 4.8 4.8 0.00 0.00 0.00 80 1018.6
20260507090817 8 83 4.8 4.8 0.00 0.00 0.00 80 1018.5
20260507090803 8 81 4.8 4.8 0.00 0.00 0.00 81 1018.5
20260507090403 8 81 4.8 6.4 0.00 0.00 0.00 81 1018.5
20260507090203 8 83 4.8 6.4 0.00 0.00 0.00 80 1018.4
20260507085817 8 90 4.8 6.4 0.00 0.00 0.00 81 1018.4
20260507085803 8 91 4.8 6.4 0.00 0.00 0.00 81 1018.4
20260507085403 8 89 4.8 6.4 0.00 0.00 0.00 81 1018.3
20260507085203 8 85 4.8 8.0 0.00 0.00 0.00 80 1018.3
20260507085003 8 83 4.8 6.4 0.00 0.00 0.00 81 1018.4
20260507084803 8 83 4.8 4.8 0.00 0.00 0.00 82 1018.3
20260507084603 8 83 4.8 8.0 0.00 0.00 0.00 81 1018.2
20260507084403 8 82 4.8 8.0 0.00 0.00 0.00 80 1018.3
20260507084203 8 81 4.8 9.7 0.00 0.00 0.00 80 1018.3
20260507084003 8 81 4.8 9.7 0.00 0.03 0.00 80 1018.1
20260507083803 8 78 4.8 6.4 0.00 0.03 0.00 80 1018.3
20260507083603 8 82 4.8 8.0 0.00 0.03 0.00 80 1018.2
20260507083403 8 84 4.8 4.8 0.00 0.03 0.00 81 1018.1
20260507083203 8 87 6.4 6.4 0.00 0.03 0.00 81 1018.2
20260507083003 8 91 6.4 4.8 0.00 0.03 0.00 80 1018.1
20260507082803 8 92 6.4 11.3 0.00 0.03 0.00 79 1018.1
20260507082603 8 87 4.8 6.4 0.00 0.03 0.00 82 1018.0
20260507082417 8 91 4.8 8.0 0.00 0.05 0.00 81 1017.9
20260507082403 8 93 4.8 6.4 0.00 0.05 0.00 81 1017.9
20260507082003 8 82 4.8 4.8 0.00 0.05 0.00 81 1018.1
20260507081803 8 83 4.8 4.8 0.00 0.05 0.00 81 1018.0
20260507081603 8 81 4.8 8.0 0.00 0.05 0.00 80 1017.9
20260507081403 8 76 4.8 6.4 0.00 0.05 0.00 81 1018.0
20260507081203 8 79 4.8 6.4 0.00 0.05 0.00 80 1017.9
20260507081003 8 79 4.8 4.8 0.00 0.05 0.00 81 1018.0
20260507080803 8 81 4.8 9.7 0.00 0.05 0.00 81 1017.8
20260507080603 8 87 4.8 6.4 0.00 0.05 0.00 81 1017.9
20260507080403 8 90 4.8 9.7 0.00 0.05 0.00 81 1018.1
20260507080203 8 87 4.8 6.4 0.00 0.05 0.00 82 1017.9
20260507080003 8 91 4.8 4.8 0.00 0.05 0.00 81 1017.8
20260507075817 8 89 4.8 6.4 0.00 0.05 0.00 82 1017.8
20260507075803 8 87 4.8 6.4 0.00 0.05 0.00 82 1017.8
20260507075403 8 92 4.8 6.4 0.00 0.05 0.00 83 1017.6
20260507075203 7 92 4.8 8.0 0.00 0.05 0.00 83 1017.5
20260507075003 7 89 4.8 8.0 0.00 0.05 0.00 83 1017.8
20260507074803 7 95 4.8 6.4 0.00 0.08 0.00 83 1017.6
20260507074603 7 91 4.8 8.0 0.00 0.08 0.00 82 1017.6
20260507074403 7 85 4.8 8.0 0.00 0.08 0.00 83 1017.5
20260507074203 7 88 4.8 6.4 0.00 0.08 0.00 83 1017.6
20260507074018 7 89 4.8 11.3 0.00 0.08 0.00 83 1017.3
20260507074003 7 90 4.8 8.0 0.00 0.08 0.00 83 1017.3
20260507073603 7 90 4.8 6.4 0.00 0.08 0.00 83 1017.2
20260507073403 7 89 4.8 9.7 0.00 0.10 0.00 83 1017.6
20260507073203 7 89 4.8 9.7 0.00 0.10 0.00 84 1017.6
20260507073003 7 90 4.8 8.0 0.00 0.10 0.00 83 1017.5
20260507072816 7 88 4.8 4.8 0.00 0.10 0.00 83 1017.3
20260507072803 7 87 4.8 6.4 0.00 0.10 0.00 83 1017.3
20260507072403 7 81 4.8 6.4 0.00 0.10 0.00 84 1017.5
20260507072203 7 78 4.8 8.0 0.00 0.10 0.00 84 1017.2
20260507072003 7 77 4.8 6.4 0.00 0.10 0.00 84 1017.2
20260507071803 7 83 4.8 9.7 0.00 0.13 0.00 84 1017.3
20260507071603 7 84 4.8 6.4 0.00 0.13 0.00 83 1017.2
20260507071403 7 89 4.8 8.0 0.00 0.13 0.00 83 1017.3
20260507071203 7 90 4.8 6.4 0.00 0.13 0.00 84 1017.1
20260507071003 7 92 4.8 8.0 0.00 0.15 0.00 83 1017.4
20260507070816 7 89 4.8 6.4 0.00 0.15 0.00 84 1017.3
20260507070803 7 88 4.8 8.0 0.00 0.15 0.00 84 1017.3
20260507070403 7 88 4.8 6.4 0.00 0.15 0.00 85 1017.3
20260507070203 7 88 4.8 6.4 0.00 0.15 0.00 85 1017.4
20260507070005 7 82 4.8 6.4 0.00 0.18 0.00 85 1017.2
20260507065803 7 84 4.8 6.4 0.00 0.18 0.00 85 1017.2
20260507065603 7 83 4.8 6.4 0.00 0.18 0.00 85 1017.2
20260507065403 7 83 4.8 6.4 0.00 0.18 0.00 85 1017.2
20260507065203 7 84 4.8 8.0 0.00 0.18 0.00 85 1017.3
20260507065003 7 88 4.8 8.0 0.00 0.18 0.00 85 1017.1
20260507064803 7 84 4.8 6.4 0.00 0.20 0.00 86 1017.1
20260507064603 7 81 4.8 6.4 0.00 0.20 0.00 86 1017.3
20260507064403 7 82 4.8 6.4 0.00 0.20 0.00 85 1017.1
20260507064218 7 85 4.8 6.4 0.00 0.23 0.00 86 1016.9
20260507064203 7 85 4.8 6.4 0.00 0.23 0.00 86 1016.9
20260507063803 7 88 4.8 6.4 0.00 0.23 0.00 86 1017.0
20260507063603 7 90 4.8 6.4 0.00 0.25 0.00 86 1017.0
20260507063203 7 86 4.8 9.7 0.00 0.28 0.00 86 1017.1
20260507063003 7 81 4.8 8.0 0.00 0.28 0.00 86 1017.1
20260507062803 7 86 4.8 6.4 0.00 0.28 0.00 86 1016.9
20260507062603 7 87 4.8 8.0 0.00 0.30 0.00 86 1016.8
20260507062403 7 98 4.8 9.7 0.00 0.33 0.00 86 1016.9
20260507062218 7 97 4.8 8.0 0.00 0.33 0.00 86 1016.8
20260507062203 7 98 4.8 8.0 0.00 0.33 0.00 86 1016.8
20260507061803 7 100 4.8 4.8 0.00 0.36 0.00 87 1017.0
20260507061603 7 104 4.8 6.4 0.00 0.38 0.00 86 1016.9
20260507061418 7 101 4.8 6.4 0.00 0.38 0.00 86 1016.8
20260507061003 7 98 4.8 6.4 0.00 0.43 0.00 87 1016.6
20260507060803 7 98 4.8 9.7 0.00 0.43 0.00 86 1016.6
20260507060603 7 90 4.8 4.8 0.00 0.43 0.00 86 1016.5
20260507060403 7 89 4.8 6.4 0.00 0.43 0.00 87 1016.6
20260507060218 7 88 4.8 6.4 0.00 0.46 0.00 87 1016.6
20260507060203 7 88 4.8 9.7 0.00 0.46 0.00 87 1016.6
20260507055803 7 85 4.8 8.0 0.00 0.46 0.00 87 1016.5
20260507055603 7 85 4.8 6.4 0.00 0.46 0.00 87 1016.8
20260507055416 7 86 4.8 6.4 0.00 0.48 0.00 87 1016.6
20260507055403 7 87 4.8 6.4 0.00 0.48 0.00 87 1016.6
20260507055003 7 82 4.8 6.4 0.00 0.48 0.00 87 1016.5
20260507054803 7 81 4.8 6.4 0.00 0.48 0.00 87 1016.8
20260507054603 7 82 4.8 6.4 0.00 0.48 0.00 87 1016.5
20260507054403 7 76 4.8 6.4 0.00 0.48 0.00 87 1016.6
20260507054203 7 72 4.8 8.0 0.00 0.48 0.00 87 1016.5
20260507054003 7 73 4.8 6.4 0.00 0.48 0.00 87 1016.3
20260507053818 7 72 4.8 6.4 0.00 0.48 0.00 87 1016.5
20260507053803 7 71 4.8 6.4 0.00 0.48 0.00 87 1016.5
20260507053403 7 75 4.8 9.7 0.00 0.51 0.00 86 1016.3
20260507053203 7 78 4.8 6.4 0.00 0.51 0.00 86 1016.4
20260507052803 7 79 4.8 8.0 0.00 0.51 0.00 87 1016.3
20260507052603 7 78 4.8 6.4 0.00 0.51 0.00 87 1016.3
20260507052403 7 79 4.8 6.4 0.00 0.51 0.00 86 1016.3
20260507052203 7 77 4.8 9.7 0.00 0.51 0.00 86 1016.2
20260507052003 7 77 4.8 8.0 0.00 0.53 0.00 87 1016.2
20260507051803 7 77 4.8 9.7 0.00 0.53 0.00 87 1016.2
20260507051603 7 82 4.8 14.5 0.00 0.53 0.00 86 1016.2
20260507051404 7 81 4.8 6.4 0.00 0.53 0.00 87 1016.1
20260507051203 7 83 4.8 8.0 0.00 0.53 0.00 87 1016.2
20260507051003 7 82 4.8 4.8 0.00 0.53 0.00 87 1016.0
20260507050803 7 81 4.8 8.0 0.00 0.56 0.00 87 1016.3
20260507050603 7 77 4.8 4.8 0.00 0.56 0.00 87 1016.2
20260507050403 7 77 4.8 4.8 0.00 0.56 0.00 86 1015.9
20260507050203 7 78 4.8 6.4 0.00 0.56 0.00 87 1016.0
20260507050003 7 81 4.8 6.4 0.00 0.56 0.00 86 1015.9
20260507045803 7 84 4.8 6.4 0.00 0.56 0.00 87 1016.1
20260507045603 7 87 4.8 6.4 0.00 0.56 0.00 87 1016.0
20260507045403 7 86 4.8 6.4 0.00 0.58 0.00 87 1016.2
20260507045217 7 89 4.8 6.4 0.00 0.58 0.00 87 1016.0
20260507045203 7 90 4.8 6.4 0.00 0.58 0.00 87 1016.0
20260507044803 7 91 4.8 6.4 0.00 0.58 0.00 87 1015.8
20260507044603 7 92 4.8 6.4 0.00 0.61 0.00 87 1015.9
20260507044403 7 95 4.8 8.0 0.00 0.61 0.00 87 1015.9
20260507044003 7 94 4.8 4.8 0.00 0.61 0.00 87 1016.1
20260507043803 7 90 4.8 6.4 0.00 0.61 0.00 87 1015.8
20260507043603 7 84 4.8 6.4 0.00 0.61 0.00 87 1015.8
20260507043403 7 83 4.8 4.8 0.00 0.61 0.00 88 1015.8
20260507043203 7 82 4.8 6.4 0.00 0.61 0.00 88 1015.9
20260507043003 7 82 4.8 6.4 0.00 0.61 0.00 88 1015.9
20260507042803 7 86 4.8 6.4 0.00 0.64 0.00 88 1015.8
20260507042603 7 91 4.8 6.4 0.00 0.64 0.00 87 1015.8
20260507042403 7 91 4.8 6.4 0.00 0.64 0.00 88 1016.0
20260507042217 7 90 4.8 6.4 0.00 0.64 0.00 87 1015.8
20260507042203 7 90 4.8 6.4 0.00 0.64 0.00 88 1015.8
20260507042016 7 91 4.8 4.8 0.00 0.64 0.00 87 1015.8
20260507041603 7 81 4.8 6.4 0.00 0.64 0.00 87 1015.5
20260507041403 7 76 4.8 6.4 0.00 0.64 0.00 87 1015.8
20260507041203 7 77 4.8 6.4 0.00 0.66 0.00 88 1015.6
20260507041003 7 76 4.8 6.4 0.00 0.66 0.00 87 1015.5
20260507040803 7 81 4.8 9.7 0.00 0.66 0.00 87 1015.6
20260507040603 7 83 4.8 6.4 0.00 0.66 0.00 87 1015.6
20260507040403 7 86 4.8 8.0 0.00 0.66 0.00 87 1015.6
20260507040203 7 85 4.8 6.4 0.00 0.66 0.00 87 1015.5
20260507040018 7 87 4.8 4.8 0.00 0.66 0.00 87 1015.5
20260507040003 7 88 4.8 6.4 0.00 0.66 0.00 87 1015.5
20260507035603 7 86 4.8 8.0 0.00 0.66 0.00 87 1015.3
20260507035417 7 86 4.8 6.4 0.00 0.66 0.00 87 1015.8
20260507035018 7 86 4.8 8.0 0.00 0.66 0.00 87 1015.6
20260507035003 7 85 4.8 8.0 0.00 0.66 0.00 87 1015.6
20260507034603 7 85 4.8 4.8 0.00 0.69 0.00 87 1015.6
20260507034404 7 86 4.8 6.4 0.00 0.69 0.00 87 1015.5
20260507034203 7 86 4.8 4.8 0.00 0.69 0.00 87 1015.5
20260507034018 7 87 4.8 6.4 0.00 0.71 0.00 87 1015.5
20260507034003 7 88 4.8 6.4 0.00 0.71 0.00 87 1015.5
20260507033603 7 89 4.8 8.0 0.00 0.71 0.00 87 1015.5
20260507033403 7 85 4.8 6.4 0.00 0.71 0.00 87 1015.6
20260507033203 7 81 4.8 4.8 0.00 0.71 0.00 87 1015.7
20260507033003 7 80 4.8 8.0 0.00 0.71 0.00 87 1015.5
20260507032803 7 79 4.8 6.4 0.00 0.74 0.00 87 1015.6
20260507032603 7 76 4.8 6.4 0.00 0.74 0.00 87 1015.4
20260507032403 7 76 4.8 6.4 0.00 0.74 0.00 87 1015.4
20260507032203 7 79 4.8 6.4 0.00 0.74 0.00 87 1015.4
20260507031803 7 83 4.8 9.7 0.00 0.76 0.00 87 1015.4
20260507031603 7 87 4.8 6.4 0.00 0.76 0.00 86 1015.3
20260507031403 7 88 4.8 6.4 0.00 0.76 0.00 86 1015.4
20260507031203 7 88 4.8 6.4 0.00 0.76 0.00 86 1015.6
20260507031003 7 86 4.8 9.7 0.00 0.79 0.00 86 1015.3
20260507030803 7 83 4.8 6.4 0.00 0.79 0.00 86 1015.3
20260507030618 7 84 4.8 6.4 0.00 0.79 0.00 86 1015.4
20260507030603 7 84 4.8 6.4 0.00 0.79 0.00 87 1015.4
20260507030203 7 82 4.8 6.4 0.00 0.81 0.00 87 1015.5
20260507030003 7 78 4.8 4.8 0.00 0.81 0.00 87 1015.3
20260507025803 7 80 4.8 8.0 0.00 0.84 0.00 87 1015.3
20260507025603 7 79 4.8 9.7 0.00 0.84 0.00 87 1015.3
20260507025203 7 79 4.8 6.4 0.00 0.86 0.00 86 1015.3
20260507025003 7 83 4.8 6.4 0.00 0.86 0.00 86 1015.4
20260507024803 7 80 4.8 4.8 0.00 0.89 0.00 86 1015.2
20260507024603 7 78 4.8 6.4 0.00 0.89 0.00 86 1015.1
20260507024403 7 78 4.8 6.4 0.00 0.91 0.00 86 1015.3
20260507024203 7 81 4.8 6.4 0.00 0.94 0.00 86 1015.2
20260507024003 7 74 4.8 6.4 0.00 0.94 0.00 86 1015.3
20260507023803 7 74 4.8 6.4 0.00 0.97 0.00 86 1015.2
20260507023603 7 77 4.8 8.0 0.00 0.99 0.00 86 1015.5
20260507023417 7 79 4.8 4.8 0.00 0.99 0.00 86 1015.0
20260507023403 7 80 4.8 4.8 0.00 0.99 0.00 85 1015.0
20260507023003 7 87 4.8 8.0 0.00 1.04 0.00 85 1015.1
20260507022803 7 88 4.8 6.4 0.00 1.04 0.00 86 1015.1
20260507022603 7 89 4.8 6.4 0.00 1.07 0.00 86 1015.2
20260507022403 7 89 4.8 9.7 0.00 1.09 0.00 86 1014.9
20260507022203 7 86 4.8 6.4 0.00 1.09 0.00 86 1014.9
20260507022003 7 89 4.8 8.0 0.00 1.09 0.00 86 1015.0
20260507021804 7 92 4.8 9.7 0.00 1.12 0.00 86 1015.0
20260507021603 7 87 4.8 6.4 0.00 1.12 0.00 85 1014.9
20260507021404 7 87 4.8 4.8 0.00 1.14 0.00 86 1014.8
20260507021203 7 87 4.8 6.4 0.00 1.17 0.00 86 1015.0
20260507021003 7 82 4.8 6.4 0.00 1.19 0.00 86 1014.8
20260507020803 7 76 4.8 8.0 0.00 1.19 0.00 86 1015.2
20260507020603 7 75 4.8 6.4 0.00 1.22 0.00 86 1015.0
20260507020403 7 75 4.8 8.0 0.00 1.22 0.00 87 1014.9
20260507020203 7 74 4.8 6.4 0.00 1.24 0.00 86 1015.1
20260507020003 7 79 4.8 4.8 0.00 1.27 0.00 86 1014.9
20260507015803 7 79 4.8 9.7 0.00 1.27 0.00 86 1014.9
20260507015603 7 83 4.8 8.0 0.00 1.30 0.00 86 1014.9
20260507015403 7 82 4.8 4.8 0.00 1.32 0.00 87 1014.8
20260507015203 7 83 4.8 9.7 0.00 1.32 0.00 87 1014.8
20260507015003 7 83 4.8 6.4 0.00 1.35 0.00 87 1014.8
20260507014803 7 84 4.8 4.8 0.00 1.37 0.00 87 1014.8
20260507014603 7 82 4.8 4.8 0.00 1.37 0.00 86 1014.9
20260507014403 7 81 4.8 6.4 0.00 1.37 0.00 86 1014.8
20260507014203 7 81 4.8 11.3 0.00 1.40 0.00 86 1014.7
20260507014003 7 78 4.8 8.0 0.00 1.42 0.00 86 1014.8
20260507013803 7 81 4.8 11.3 0.00 1.42 0.00 86 1014.7
20260507013403 7 88 4.8 8.0 0.00 1.45 0.00 86 1014.7
20260507013203 7 86 4.8 6.4 0.00 1.45 0.00 86 1014.6
20260507013003 7 83 4.8 6.4 0.00 1.47 0.00 86 1014.5
20260507012803 7 82 4.8 6.4 0.00 1.47 0.00 86 1014.7
20260507012603 7 87 4.8 6.4 0.00 1.50 0.00 86 1014.3
20260507012403 7 81 4.8 8.0 0.00 1.50 0.00 86 1014.5
20260507012203 7 84 4.8 6.4 0.00 1.50 0.00 86 1014.8
20260507012003 7 88 4.8 6.4 0.00 1.52 0.00 86 1014.6
20260507011603 7 86 4.8 8.0 0.00 1.55 0.00 86 1014.7
20260507011403 7 92 4.8 4.8 0.00 1.55 0.00 86 1014.7
20260507011203 7 94 4.8 6.4 0.00 1.55 0.00 86 1014.9
20260507011017 7 96 4.8 6.4 0.00 1.57 0.00 86 1014.7
20260507010603 7 95 4.8 8.0 0.00 1.60 0.00 85 1014.9
20260507010403 7 94 4.8 8.0 0.00 1.60 0.00 85 1015.0
20260507010203 7 92 4.8 9.7 0.00 1.60 0.00 85 1014.9
20260507010003 7 87 4.8 8.0 0.00 1.60 0.00 85 1015.0
20260507005803 7 87 4.8 9.7 0.00 1.63 0.00 85 1015.0
20260507005603 7 84 4.8 6.4 0.00 1.63 0.00 85 1015.0
20260507005416 7 92 6.4 9.7 0.00 1.63 0.00 85 1014.9
20260507005403 7 93 6.4 9.7 0.00 1.63 0.00 85 1014.9
20260507005003 7 91 4.8 6.4 0.00 1.65 0.00 85 1014.9
20260507004803 7 93 4.8 9.7 0.00 1.65 0.00 86 1014.9
20260507004603 7 95 4.8 11.3 0.00 1.65 0.00 86 1014.7
20260507004416 7 87 4.8 12.9 0.00 1.65 0.00 86 1014.8
20260507004403 7 85 4.8 6.4 0.00 1.65 0.00 87 1014.8
20260507004003 7 85 4.8 6.4 0.00 1.65 0.00 86 1014.7
20260507003603 8 78 4.8 9.7 0.00 1.68 0.00 86 1014.7
20260507003403 8 81 4.8 6.4 0.00 1.68 0.00 87 1014.5
20260507003203 8 84 4.8 6.4 0.00 1.70 0.00 87 1014.7
20260507003017 8 83 4.8 4.8 0.00 1.70 0.00 87 1014.6
20260507003003 8 82 4.8 4.8 0.00 1.70 0.00 87 1014.6
20260507002603 8 85 4.8 6.4 0.00 1.70 0.00 86 1014.4
20260507002403 8 83 4.8 8.0 0.00 1.70 0.00 87 1014.3
20260507002003 8 87 4.8 9.7 0.00 1.73 0.00 87 1014.3
20260507001803 8 87 4.8 8.0 0.00 1.73 0.00 87 1014.5
20260507001603 8 86 4.8 6.4 0.00 1.73 0.00 87 1014.4
20260507001403 8 86 4.8 6.4 0.00 1.73 0.00 87 1014.4
20260507001203 8 87 4.8 16.1 0.00 1.73 0.00 86 1014.2
20260507001003 8 86 4.8 8.0 0.00 1.75 0.00 87 1013.8
20260507000803 8 87 4.8 8.0 0.00 1.75 0.00 87 1014.1
20260507000603 8 87 4.8 6.4 0.00 1.75 0.00 87 1013.8
20260507000405 8 90 4.8 4.8 0.00 1.75 0.00 87 1014.0
20260507000205 8 94 4.8 6.4 0.00 1.75 0.00 87 1014.0
20260507000003 8 90 4.8 6.4 0.00 1.75 0.00 88 1014.1
20260506235803 8 94 4.8 6.4 0.00 1.75 0.00 87 1014.2
20260506235603 8 96 4.8 6.4 0.00 1.75 0.00 87 1014.0
20260506235403 8 97 4.8 8.0 0.00 1.75 0.00 87 1014.2
20260506235203 8 97 4.8 4.8 0.00 1.78 0.00 87 1014.1
20260506235003 8 98 4.8 9.7 0.00 1.78 0.00 87 1014.0
20260506234818 8 94 4.8 8.0 0.00 1.78 0.00 87 1013.9
20260506234803 8 95 4.8 8.0 0.00 1.78 0.00 87 1013.9
20260506234418 9 94 4.8 6.4 0.00 1.78 0.00 87 1014.0
20260506234403 9 93 4.8 6.4 0.00 1.78 0.00 87 1014.0
20260506234003 9 89 4.8 6.4 0.00 1.78 0.00 87 1013.9
20260506233803 9 93 6.4 6.4 0.00 1.78 0.00 87 1013.7
20260506233603 9 86 6.4 8.0 0.00 1.78 0.00 86 1013.8
20260506233418 9 85 6.4 9.7 0.00 1.78 0.00 86 1013.9
20260506233403 9 87 6.4 8.0 0.00 1.78 0.00 86 1013.9
20260506233217 9 87 6.4 11.3 0.00 1.78 0.00 86 1013.9
20260506232803 9 83 4.8 6.4 0.00 1.78 0.00 86 1013.8
20260506232603 9 90 4.8 8.0 0.00 1.78 0.00 86 1013.7
20260506232403 10 84 4.8 8.0 0.00 1.78 0.00 86 1013.8
20260506232217 10 81 4.8 4.8 0.00 1.78 0.00 86 1013.8
20260506232203 10 82 4.8 6.4 0.00 1.78 0.00 86 1013.8
20260506231803 10 86 4.8 6.4 0.00 1.80 0.00 86 1013.8
20260506231403 10 83 4.8 6.4 0.00 1.80 0.00 86 1013.7
20260506231203 10 82 4.8 6.4 0.00 1.80 0.00 86 1013.8
20260506231003 10 79 4.8 4.8 0.00 1.80 0.00 86 1013.6
20260506230803 10 78 4.8 8.0 0.00 1.80 0.00 86 1013.7
20260506230617 10 78 4.8 6.4 0.00 1.80 0.00 86 1013.8
20260506230603 10 79 4.8 6.4 0.00 1.80 0.00 86 1013.8
20260506230203 10 81 4.8 6.4 0.00 1.80 0.00 86 1013.9
20260506230003 10 79 4.8 6.4 0.00 1.80 0.00 86 1013.8
20260506225803 10 76 4.8 8.0 0.00 1.83 0.00 87 1013.8
20260506225603 10 84 4.8 6.4 0.00 1.83 0.00 86 1013.6
20260506225403 10 84 4.8 6.4 0.00 1.83 0.00 86 1013.6
20260506225203 10 84 4.8 6.4 0.00 1.83 0.00 87 1013.9
20260506225018 10 86 4.8 8.0 0.00 1.83 0.00 87 1013.7
20260506225003 10 88 4.8 8.0 0.00 1.83 0.00 87 1013.7
20260506224817 10 92 4.8 8.0 0.00 1.83 0.00 86 1013.6
20260506224403 10 82 4.8 6.4 0.00 1.83 0.00 86 1013.7
20260506224203 10 86 4.8 6.4 0.00 1.83 0.00 87 1013.7
20260506224003 10 88 4.8 6.4 0.00 1.83 0.00 87 1013.7
20260506223803 10 89 4.8 4.8 0.00 1.83 0.00 87 1013.8
20260506223616 10 88 4.8 6.4 0.00 1.83 0.00 87 1013.5
20260506223603 10 89 4.8 6.4 0.00 1.83 0.00 87 1013.5
20260506223203 10 86 4.8 6.4 0.00 1.83 0.00 87 1013.5
20260506223003 10 88 4.8 8.0 0.00 1.83 0.00 88 1013.7
20260506222803 10 87 4.8 6.4 0.00 1.83 0.00 88 1013.4
20260506222603 10 90 4.8 6.4 0.00 1.83 0.00 88 1013.5
20260506222403 10 86 4.8 6.4 0.00 1.83 0.00 88 1013.6
20260506222203 10 88 4.8 9.7 0.00 1.83 0.00 88 1013.6
20260506222003 10 83 4.8 6.4 0.00 1.83 0.00 87 1013.6
20260506221803 10 83 4.8 6.4 0.00 1.83 0.00 87 1013.3
20260506221603 10 83 4.8 6.4 0.00 1.83 0.00 88 1013.4
20260506221403 10 85 4.8 6.4 0.00 1.83 0.00 87 1013.4
20260506221217 10 89 4.8 6.4 0.00 1.83 0.00 88 1013.5
20260506221203 10 88 4.8 6.4 0.00 1.83 0.00 88 1013.5
20260506220803 10 87 4.8 6.4 0.00 1.83 0.00 88 1013.4
20260506220603 10 83 4.8 6.4 0.00 1.83 0.00 88 1013.4
20260506220417 10 82 4.8 6.4 0.00 1.83 0.00 88 1013.7
20260506220403 10 83 4.8 6.4 0.00 1.83 0.00 88 1013.7
20260506220219 10 79 4.8 6.4 0.00 1.83 0.00 89 1013.5
20260506220018 10 79 4.8 4.8 0.00 1.83 0.00 89 1013.6
20260506215603 10 84 4.8 4.8 0.00 1.83 1.83 89 1013.5
20260506215403 10 83 4.8 6.4 0.00 1.83 1.83 89 1013.5
20260506215003 10 80 4.8 6.4 0.00 1.83 1.83 89 1013.8
20260506214803 10 81 4.8 4.8 0.00 1.83 1.83 89 1013.8
20260506214403 10 80 4.8 6.4 0.00 1.83 1.83 89 1013.7
20260506214003 10 85 4.8 6.4 0.00 1.83 1.83 89 1013.8
20260506213803 10 82 4.8 6.4 0.00 1.83 1.83 89 1013.6
20260506213603 10 88 4.8 4.8 0.00 1.83 1.83 89 1013.7
20260506213403 10 90 4.8 6.4 0.00 1.83 1.83 89 1013.6
20260506213203 10 89 4.8 4.8 0.00 1.83 1.83 89 1013.6
20260506213003 10 89 4.8 6.4 0.00 1.83 1.83 89 1013.5
20260506212603 10 88 4.8 6.4 0.00 1.83 1.83 90 1013.8
20260506212403 10 85 4.8 6.4 0.00 1.83 1.83 90 1013.5
20260506212203 10 83 4.8 6.4 0.00 1.83 1.83 90 1013.6
20260506212003 10 83 4.8 6.4 0.00 1.83 1.83 90 1013.3
20260506211803 10 84 4.8 8.0 0.00 1.83 1.83 90 1013.5
20260506211618 10 84 4.8 4.8 0.00 1.83 1.83 90 1013.4
20260506211603 10 83 4.8 6.4 0.00 1.83 1.83 90 1013.4
20260506211203 10 85 4.8 6.4 0.00 1.83 1.83 90 1013.5
20260506211003 10 82 4.8 8.0 0.00 1.83 1.83 90 1013.6
20260506210803 10 79 4.8 4.8 0.00 1.83 1.83 90 1013.6
20260506210618 10 77 4.8 3.2 0.00 1.83 1.83 90 1013.4
20260506210603 10 77 4.8 4.8 0.00 1.83 1.83 90 1013.4
20260506210203 10 77 4.8 8.0 0.00 1.83 1.83 90 1013.3
20260506205803 10 83 4.8 6.4 0.00 1.83 1.83 89 1013.4
20260506205403 10 82 4.8 6.4 0.00 1.83 1.83 90 1013.5
20260506205203 10 81 4.8 4.8 0.00 1.83 1.83 90 1013.5
20260506205003 10 77 4.8 6.4 0.00 1.83 1.83 90 1013.4
20260506204803 10 77 4.8 6.4 0.00 1.83 1.83 90 1013.4
20260506204603 10 77 4.8 4.8 0.00 1.83 1.83 89 1013.2
20260506204403 10 79 4.8 6.4 0.00 1.83 1.83 89 1013.2
20260506204203 10 82 4.8 6.4 0.00 1.83 1.83 89 1013.1
20260506204003 10 83 4.8 4.8 0.00 1.83 1.83 89 1013.2
20260506203803 10 86 4.8 6.4 0.00 1.83 1.83 88 1013.2
20260506203403 10 85 4.8 6.4 0.00 1.83 1.83 88 1013.1
20260506203203 10 83 4.8 6.4 0.00 1.83 1.83 87 1013.3
20260506203003 10 83 4.8 8.0 0.00 1.83 1.83 87 1013.0
20260506202803 10 81 4.8 4.8 0.00 1.83 1.83 88 1013.1
20260506202603 10 80 4.8 6.4 0.00 1.83 1.83 88 1013.1
20260506202403 10 83 4.8 4.8 0.00 1.83 1.83 88 1013.1
20260506202203 10 85 4.8 6.4 0.00 1.83 1.83 88 1013.0
20260506202003 10 82 4.8 6.4 0.00 1.83 1.83 87 1013.2
20260506201803 10 82 4.8 6.4 0.00 1.83 1.83 88 1013.1
20260506201603 10 88 4.8 8.0 0.00 1.83 1.83 88 1013.3
20260506201403 10 85 4.8 6.4 0.00 1.83 1.83 88 1013.1
20260506201203 10 86 4.8 6.4 0.00 1.83 1.83 88 1012.9
20260506201003 10 87 4.8 8.0 0.00 1.83 1.83 88 1013.0
20260506200816 10 86 4.8 9.7 0.00 1.83 1.83 87 1013.0
20260506200803 10 86 4.8 9.7 0.00 1.83 1.83 88 1013.0
20260506200403 10 79 4.8 4.8 0.00 1.83 1.83 87 1012.8
20260506200003 10 80 4.8 4.8 0.00 1.83 1.83 87 1012.8
20260506195803 10 80 4.8 6.4 0.00 1.83 1.83 87 1012.8
20260506195603 10 84 4.8 4.8 0.00 1.83 1.83 88 1013.0
20260506195403 10 87 4.8 6.4 0.00 1.83 1.83 87 1012.9
20260506195203 10 86 4.8 6.4 0.00 1.83 1.83 87 1012.9
20260506195017 10 90 4.8 4.8 0.00 1.83 1.83 87 1013.2
20260506195004 10 91 4.8 4.8 0.00 1.83 1.83 87 1013.2
20260506194603 10 88 4.8 6.4 0.00 1.83 1.83 86 1012.9
20260506194403 10 86 4.8 4.8 0.00 1.83 1.83 86 1013.0
20260506194203 10 86 4.8 4.8 0.00 1.83 1.83 86 1013.1
20260506194003 10 82 4.8 6.4 0.00 1.83 1.83 87 1013.1
20260506193803 10 85 4.8 8.0 0.00 1.83 1.83 87 1012.9
20260506193603 10 89 4.8 6.4 0.00 1.83 1.83 87 1012.8
20260506193403 10 87 4.8 4.8 0.00 1.83 1.83 88 1012.8
20260506193203 10 87 4.8 6.4 0.00 1.83 1.83 88 1013.0
20260506193017 10 89 4.8 8.0 0.00 1.83 1.83 88 1013.0
20260506193003 10 90 4.8 8.0 0.00 1.83 1.83 87 1013.0
20260506192603 10 82 4.8 6.4 0.00 1.83 1.83 88 1013.1
20260506192403 10 85 4.8 4.8 0.00 1.83 1.83 88 1013.0
20260506192203 10 86 4.8 6.4 0.00 1.83 1.83 88 1013.0
20260506192003 10 80 4.8 6.4 0.00 1.83 1.83 88 1013.0
20260506191803 10 78 4.8 4.8 0.00 1.83 1.83 88 1012.9
20260506191617 10 78 4.8 6.4 0.00 1.83 1.83 88 1012.8
20260506191603 10 79 4.8 6.4 0.00 1.83 1.83 88 1012.8
20260506191203 11 79 4.8 6.4 0.00 1.83 1.83 87 1012.8
20260506191003 11 84 4.8 6.4 0.00 1.83 1.83 87 1012.9
20260506190803 11 87 4.8 6.4 0.00 1.83 1.83 87 1012.7
20260506190603 11 87 4.8 6.4 0.00 1.83 1.83 87 1012.8
20260506190403 11 85 4.8 6.4 0.00 1.83 1.83 86 1012.6
20260506190003 11 80 4.8 6.4 0.00 1.83 1.83 87 1012.8
20260506185803 11 77 4.8 4.8 0.00 1.83 1.83 87 1012.8
20260506185617 11 78 4.8 6.4 0.00 1.83 1.83 87 1012.8
20260506185603 11 79 4.8 6.4 0.00 1.83 1.83 87 1012.8
20260506185203 11 78 4.8 8.0 0.00 1.83 1.83 87 1012.9
20260506185003 11 74 4.8 6.4 0.00 1.83 1.83 87 1012.8
20260506184803 11 73 4.8 8.0 0.00 1.83 1.83 86 1012.6
20260506184603 11 71 4.8 4.8 0.00 1.83 1.83 86 1012.7
20260506184403 11 73 4.8 6.4 0.00 1.83 1.83 86 1012.6
20260506184217 11 74 4.8 8.0 0.00 1.83 1.83 86 1012.5
20260506184203 11 75 4.8 8.0 0.00 1.83 1.83 87 1012.5
20260506183803 11 82 4.8 4.8 0.00 1.83 1.83 88 1012.5
20260506183403 11 85 4.8 6.4 0.00 1.83 1.83 88 1012.3
20260506183203 11 86 4.8 6.4 0.00 1.83 1.83 87 1012.2
20260506183003 11 86 4.8 8.0 0.00 1.83 1.83 87 1012.2
20260506182803 11 88 4.8 6.4 0.00 1.83 1.83 87 1012.3
20260506182603 11 85 4.8 4.8 0.00 1.83 1.83 87 1012.2
20260506182403 11 82 4.8 6.4 0.00 1.83 1.83 87 1012.2
20260506182203 11 83 4.8 4.8 0.00 1.83 1.83 86 1012.3
20260506182003 12 80 4.8 6.4 0.00 1.83 1.83 86 1012.2
20260506181803 12 83 4.8 4.8 0.00 1.83 1.83 87 1012.3
20260506181603 12 87 4.8 4.8 0.00 1.83 1.83 86 1012.3
20260506181403 12 92 4.8 9.7 0.00 1.83 1.83 85 1012.1
20260506181203 12 93 4.8 8.0 0.00 1.83 1.83 86 1012.0
20260506181003 12 96 4.8 6.4 0.00 1.83 1.83 86 1012.2
20260506180803 12 98 4.8 6.4 0.00 1.83 1.83 86 1012.1
20260506180603 12 98 4.8 6.4 0.00 1.83 1.83 86 1011.8
20260506180403 12 96 4.8 8.0 0.00 1.83 1.83 85 1011.9
20260506180203 12 95 4.8 8.0 0.00 1.83 1.83 86 1011.9
20260506180004 12 94 4.8 6.4 0.00 1.83 1.83 85 1011.9
20260506175803 12 93 4.8 4.8 0.00 1.83 1.83 85 1011.9
20260506175603 12 86 4.8 6.4 0.00 1.83 1.83 85 1011.8
20260506175403 12 86 4.8 6.4 0.00 1.83 1.83 85 1011.8
20260506175203 12 86 4.8 4.8 0.00 1.83 1.83 85 1011.8
20260506175016 12 82 4.8 6.4 0.00 1.83 1.83 85 1011.7
20260506175003 12 83 4.8 6.4 0.00 1.83 1.83 85 1011.7
20260506174603 12 87 4.8 9.7 0.00 1.83 1.83 84 1012.0
20260506174403 12 85 4.8 9.7 0.00 1.83 1.83 85 1012.0
20260506174203 12 83 4.8 6.4 0.00 1.83 1.83 86 1012.2
20260506174003 12 82 4.8 6.4 0.00 1.83 1.83 85 1011.8
20260506173803 12 80 4.8 4.8 0.00 1.83 1.83 86 1011.7
20260506173603 12 77 4.8 6.4 0.00 1.83 1.83 86 1011.9
20260506173404 12 78 4.8 6.4 0.00 1.83 1.83 85 1011.8
20260506173203 12 79 4.8 4.8 0.00 1.83 1.83 85 1011.9
20260506173003 12 79 4.8 6.4 0.00 1.83 1.83 86 1012.2
20260506172803 12 83 4.8 6.4 0.00 1.83 1.83 86 1011.8
20260506172603 12 84 4.8 6.4 0.00 1.83 1.83 85 1012.1
20260506172403 12 81 4.8 4.8 0.00 1.83 1.83 85 1012.2
20260506172203 12 79 4.8 6.4 0.00 1.83 1.83 85 1012.1
20260506172003 12 80 4.8 4.8 0.00 1.83 1.83 85 1012.0
20260506171803 12 76 4.8 6.4 0.00 1.83 1.83 85 1012.1
20260506171603 12 77 4.8 6.4 0.00 1.83 1.83 85 1011.9
20260506171403 12 81 4.8 6.4 0.00 1.83 1.83 85 1012.2
20260506171003 12 86 4.8 6.4 0.00 1.83 1.83 85 1011.8
20260506170803 12 87 4.8 6.4 0.00 1.83 1.83 85 1011.6
20260506170603 12 87 4.8 6.4 0.00 1.83 1.83 84 1011.7
20260506170203 12 81 4.8 6.4 0.00 1.83 1.83 84 1011.7
20260506170003 12 77 4.8 6.4 0.00 1.83 1.83 85 1011.6
20260506165817 12 75 4.8 6.4 0.00 1.83 1.83 84 1011.6
20260506165803 12 75 4.8 8.0 0.00 1.83 1.83 84 1011.6
20260506165403 12 76 4.8 4.8 0.00 1.83 1.83 85 1011.6
20260506165203 12 77 4.8 6.4 0.00 1.83 1.83 85 1011.8
20260506165003 12 81 4.8 8.0 0.00 1.83 1.83 85 1011.6
20260506164803 12 84 4.8 6.4 0.00 1.83 1.83 84 1011.5
20260506164603 12 84 4.8 8.0 0.00 1.83 1.83 85 1011.5
20260506164203 12 81 4.8 6.4 0.00 1.83 1.83 86 1011.3
20260506164003 12 82 4.8 6.4 0.00 1.83 1.83 85 1011.5
20260506163803 12 78 4.8 6.4 0.00 1.83 1.83 86 1011.7
20260506163603 12 76 4.8 8.0 0.00 1.83 1.83 85 1011.5
20260506163403 12 81 4.8 8.0 0.00 1.83 1.83 85 1011.8
20260506163203 12 82 4.8 8.0 0.00 1.83 1.83 86 1011.7
20260506163003 12 82 4.8 6.4 0.00 1.83 1.83 85 1011.6
20260506162817 13 90 4.8 6.4 0.00 1.83 1.83 85 1011.6
20260506162803 13 91 4.8 6.4 0.00 1.83 1.83 85 1011.6
20260506162618 13 95 4.8 9.7 0.00 1.83 1.83 85 1011.5
20260506162203 13 97 4.8 4.8 0.00 1.83 1.83 86 1011.6
20260506162003 13 95 4.8 8.0 0.00 1.83 1.83 85 1011.5
20260506161803 13 87 4.8 8.0 0.00 1.83 1.83 85 1011.6
20260506161603 13 81 4.8 4.8 0.00 1.83 1.83 85 1011.5
20260506161403 13 78 4.8 4.8 0.00 1.83 1.83 85 1011.5
20260506161203 12 77 4.8 4.8 0.00 1.83 1.83 85 1011.4
20260506161004 12 79 4.8 4.8 0.00 1.83 1.83 84 1011.5
20260506160803 13 74 4.8 6.4 0.00 1.83 1.83 84 1011.5
20260506160603 13 78 4.8 8.0 0.00 1.83 1.83 84 1011.6
20260506160403 13 76 4.8 6.4 0.00 1.83 1.83 84 1011.8
20260506160203 13 78 4.8 6.4 0.00 1.83 1.83 84 1011.6
20260506160003 13 80 4.8 9.7 0.00 1.83 1.83 83 1011.6
20260506155803 13 87 4.8 6.4 0.00 1.83 1.83 84 1011.5
20260506155618 13 86 4.8 6.4 0.00 1.83 1.83 84 1011.7
20260506155603 13 87 4.8 6.4 0.00 1.83 1.83 84 1011.7
20260506155216 13 87 4.8 6.4 0.00 1.83 1.83 83 1011.7
20260506155203 13 85 4.8 6.4 0.00 1.83 1.83 83 1011.7
20260506154817 13 83 4.8 4.8 0.00 1.83 1.83 83 1011.5
20260506154803 13 83 4.8 6.4 0.00 1.83 1.83 83 1011.5
20260506154403 13 81 4.8 4.8 0.00 1.83 1.83 85 1011.7
20260506154203 13 84 4.8 6.4 0.00 1.83 1.83 86 1011.7
20260506154017 13 83 4.8 6.4 0.00 1.83 1.83 85 1011.4
20260506154003 13 82 4.8 6.4 0.00 1.83 1.83 85 1011.4
20260506153603 13 76 4.8 4.8 0.00 1.83 1.83 86 1011.6
20260506153417 13 78 4.8 6.4 0.00 1.83 1.83 86 1011.6
20260506153403 13 77 4.8 6.4 0.00 1.83 1.83 86 1011.6